Regional Weather Roundup
Issued by NWS

Home | Current Version | Previous Version | Graphics & Text | Print | Product List | Glossary On
Versions: 1 2 3 4 5 6 7 8 9 10 11 12 13 14 15 16 17 18 19 20 21 22 23 24 25 26 27 28 29 30 31 32 33 34 35 36 37 38 39 40 41 42 43 44 45 46 47 48 49 50
370
ASUS43 KLMK 271002
RWRKY
KENTUCKY REGIONAL WEATHER ROUNDUP
NATIONAL WEATHER SERVICE LOUISVILLE KY
600 AM EDT SAT MAY 27 2017

NOTE "FAIR" INDICATES FEW OR NO CLOUDS BELOW 12,000 FEET
WITH NO SIGNIFICANT WEATHER AND/OR OBSTRUCTIONS TO VISIBILITY.

KYZ001>023-026-027-061>063-070>075-271100-
WESTERN AND SOUTH CENTRAL KENTUCKY

CITY           SKY/WX    TMP DP  RH WIND       PRES   REMARKS
PADUCAH        CLOUDY    70  66  87 CALM      29.85R
HENDERSON      PTCLDY    68  66  93 SW5       29.86R
OWENSBORO      MOCLDY    68  66  93 SW3       29.87R
HOPKINSVILLE   CLOUDY    71  64  78 SW5       29.88R
BOWLING GREEN  MOCLDY    73  63  70 SW3       29.88S
GLASGOW        NOT AVBL
$$

KYZ024-025-028>034-038-045-046-053-271100-
NORTH CENTRAL KENTUCKY

CITY           SKY/WX    TMP DP  RH WIND       PRES   REMARKS
LOUISVILLE/SDF CLOUDY    73  67  81 W5        29.85S
LOUISVILLE/LOU CLOUDY    73  68  84 W5        29.86S
FORT KNOX      MOCLDY    70  64  82 CALM      29.86R
$$

KYZ035>037-039>044-047>052-055>060-089>105-271100-
NORTHEAST KENTUCKY

CITY           SKY/WX    TMP DP  RH WIND       PRES   REMARKS
LEXINGTON      CLOUDY    70  61  73 SW6       29.88S
COVINGTON      MOCLDY    70  64  81 SW7       29.84S
FRANKFORT      CLOUDY    69  62  78 SW3       29.86S
$$

KYZ054-064>069-076>088-106>120-271100-
SOUTHEAST KENTUCKY

CITY           SKY/WX    TMP DP  RH WIND       PRES   REMARKS
JACKSON        CLOUDY    68  60  75 VRB3      29.91F
LONDON         CLOUDY    72  59  63 SW6       29.93S
SOMERSET       CLOUDY    68  59  73 CALM      29.93R
MIDDLESBORO    CLOUDY    64  63  96 CALM      29.96S
MONTICELLO     CLOUDY    72  62  71 SW15      29.93S
$$





USA.gov is the U.S. government's official web portal to all federal, state and local government web resources and services.